Location: Unspecified
(50.7693°N, 0.0000°E)
Time: 03:31:15
(UTC+00:00)

SR - Pass Details

Date: 03 July 2019
Orbit: 580 x 875 km, 66.7° (Epoch: 17 July)

Event Time Altitude Azimuth Distance (km) Brightness Sun altitude
Rises 06:01:05 0° 316° (NW) 2,917 ? 17.1°
Reaches altitude 10° 06:04:41 10° 346° (NNW) 2,068 ? 17.7°
Maximum altitude 06:06:42 13° 12° (NNE) 1,937 ? 18.0°
Drops below altitude 10° 06:08:46 10° 38° (NE) 2,144 ? 18.3°
Sets 06:12:39 0° 67° (ENE) 3,141 ? 18.9°
